Location: Capelle
(50.3413°N, 1.9974°E)
Time: 06:58:09
(UTC+00:00)

USA 238 DEB - Pass Details

Date: 12 January 2026
Orbit: 883 x 1328 km, 63.4° (Epoch: 10 January)

Event Time Altitude Azimuth Distance (km) Brightness Sun altitude
Rises 18:36:52 0° 316° (NW) 3,945 7.2 -22.1°
Reaches altitude 10° 18:39:27 10° 314° (NW) 3,044 6.6 -22.5°
Maximum altitude 18:46:45 68° 234° (SW) 1,314 4.2 -23.7°
Drops below altitude 10° 18:54:43 10° 153° (SSE) 3,303 6.0 -25.0°
Enters shadow 18:56:31 - 152° (SSE) 3,916 6.4 -25.2°
